STARLINK-32361, 61933

Orbit data source: Space-Track

STARLINK-32361, 61933 is a payload satellite owned by SpaceX/Seattle (US) in LEO that was launched on Mon, 11 Nov 2024 UTC via an FALCON 9 launch vehicle from the Air Force Eastern Test Range (AFETR). Payload-class satellites include a variety of spacecraft equipped with specific instruments for various scientific and technological missions. These include communications satellites like Starlink; space stations such as the ISS; scientific satellites like the Hubble; Earth observation satellites from companies like Planet Labs, Umbra, and HawkEye 360; GPS; miniature CubeSats for education and research; and military/defense satellites.

Loading next visibility...
Identifier
61933, 2024-207X
Orbit
LEO
Country
Flag of USUS
Related business
Manufacturer
SpaceX/Seattle
Mission
Operational Commercial Communications
Bus & Motor
STARLINK V2M, Unknown motor
Mass
730 kg wet, ~700 kg dry
Launch date (UTC)
2024-11-11 (1 year ago)
Launch vehicle
FALCON 9
Launch site
Air Force Eastern Test Range (AFETR)
Object type
Payload
Rocket body
Debris
Shape & HBR
Box + 2 Pan, 17.7 m
Radar Cross Section
33.884 m², Large (>1 m²)

Expand to show TLE details & history
Last TLE update: 1 day ago

TLE from 1 day ago
0 STARLINK-32361
1 61933U 24207X   26072.51826548  .00024617  00000-0  90077-3 0  9999
2 61933  42.9976 260.4434 0001244 280.8882  79.1829 15.27591643 75305
Epoch: 2026-03-13T12:26Z
TLE epoch observation values (Epoch: 2026-03-13T12:26:18.137Z)
Latitude
-0.00006°
Longitude
-97.28488°
Altitude
482.629 km
Speed
7.626 km/s
True Right ascension
17h 21m 46s
True Declination
0° 00' 00"
Sunlit
Object was in daylight at epoch
Visualization orbit readout
Latitude
Unknown
Longitude
Unknown
Altitude
Unknown
Speed
Unknown
Apparent Right ascension
Unknown
Apparent Declination
Unknown
Sunlit
N/A
Visualization observer readout
Local Sidereal Time
19:23:47
Azimuth
Unknown
Elevation
Unknown
Doppler factor
Unknown
Orbital elements
Apogee altitude
485.814 km
Perigee altitude
484.106 km
Semi-major axis
6,863.097 km
Eccentricity
0.00012
Inclination
42.9976°
RAAN
260.4434°
Arg. of periapsis
280.8882°
True anomaly
79.1969°
Mean anomaly
79.1829°
Eccentric anomaly
79.1899°
Mean motion
3.81736 °/min
Orbital period
94.31 mins
BSTAR
0.00090077
Loading maneuver chart data...
Computing Atmospheric mass density...
Loading historical data...
Loading historical data...
Loading historical data...
Loading historical data...
Loading historical data...
Loading historical data...
Loading historical data...

Documentation

Showing up to 5 results
|